[[{"header":{"parameterUnit":"m.s-1","parameterCategory":1,"la1":30.2991,"la2":30.254,"lo1":-89.0895,"lo2":-89.0444,"dy":0.0017,"dx":0.0017,"nx":28,"ny":28,"refTime":"2024-11-22T03:00:00:Z","depth":0,"parameterNumber":2,"parameterNumberName":"U-component_of_WINDS"},"data":[0,0,0,0,0,0,0,0,0,0,0,0,0,0,0,0,0,0,0,0,0,0,0,0,0,0,0,0,0,0,0,0,0,0,0,0,0,0,0,0,0,0,0,0,0,0,0,0,0,0,0,0,0,0,0,0,0,0,1.4563,1.4563,0,1.457,1.457,1.457,1.4558,1.4557,1.4557,1.4557,1.4563,1.4564,1.4564,0,0,0,0,0,0,0,0,0,0,0,0,0,1.4541,1.4541,1.4563,1.4563,1.4563,1.457,1.457,1.457,1.4558,1.4557,1.4557,1.4556,1.4563,1.4564,1.4564,0,0,0,0,0,0,0,0,0,0,0,0,0,1.4549,1.4542,1.4563,1.4558,1.4558,1.457,1.457,1.457,1.4558,1.4557,1.4557,1.4556,1.4563,1.4564,1.4564,1.4581,0,0,1.4567,1.4567,0,0,0,0,0,0,0,0,1.4549,1.455,1.4559,1.4559,1.4558,1.4562,1.4564,1.4574,1.4558,1.4558,1.4557,1.4556,1.4563,1.4564,1.4567,1.4582,1.4582,1.4567,1.4567,1.4568,1.4568,0,0,0,0,0,0,0,1.4548,1.455,1.4566,1.4559,1.4559,1.4556,1.4556,1.4566,1.4564,1.4558,1.4557,1.4558,1.4563,1.4566,1.4567,1.4582,1.4567,1.4568,1.4568,1.4568,1.4613,1.4613,0,0,0,0,0,0,1.4548,1.4549,1.4566,1.4566,1.4552,1.4557,1.4557,1.4562,1.4564,1.4564,1.4558,1.4557,1.4565,1.4566,1.4567,1.4588,1.4568,1.4569,1.4569,1.4612,1.4613,1.4614,0,0,0,0,0,0,1.4548,1.455,1.4565,1.4558,1.4559,1.4558,1.4563,1.4562,1.4565,1.4564,1.4564,1.4562,1.4564,1.4566,1.4578,1.4588,1.4569,1.457,1.4611,1.4612,1.4613,1.4629,0,0,0,0,0,0,1.4547,1.455,1.4556,1.4558,1.456,1.4576,1.4563,1.4563,1.4566,1.4565,1.4567,1.4567,1.4564,1.4577,1.4579,1.4588,1.457,1.461,1.4612,1.4613,1.4628,1.463,1.4633,0,0,0,0,0,1.4547,1.456,1.4556,1.4558,1.4567,1.4577,1.4578,1.4574,1.4567,1.4574,1.4573,1.4567,1.4586,1.4578,1.4581,1.459,1.461,1.4611,1.4613,1.4626,1.463,1.4633,0,0,0,0,0,0,1.4559,1.456,1.4556,1.457,1.4574,1.4575,1.4583,1.4578,1.4583,1.4582,1.4577,1.4578,1.4591,1.4592,1.4583,1.4608,1.4597,1.4599,1.4606,1.461,1.4612,1.4612,1.4571,0,0,0,0,0,1.4563,1.4571,1.4571,1.4584,1.4586,1.4584,1.4588,1.4585,1.4588,1.459,1.459,1.4594,1.4601,1.4605,1.4612,1.4628,1.4628,1.4636,1.4638,1.4641,1.4642,1.4652,1.4655,1.4619,1.4619,1.4619,0,0,1.4573,1.4574,1.4579,1.4587,1.4589,1.4597,1.4585,1.4594,1.46,1.4591,1.4603,1.4604,1.4607,1.4622,1.4628,1.4623,1.4653,1.4642,1.4644,1.4645,1.4654,1.4657,1.466,1.462,1.462,1.4619,0,0,1.4593,1.4595,1.4606,1.4609,1.4613,1.4611,1.4614,1.4616,1.4617,1.4629,1.4622,1.4629,1.4641,1.4644,1.4648,1.4671,1.4666,1.4673,1.4687,1.4696,1.4699,1.4702,1.471,1.4714,1.4675,1.4675,1.4675,0,1.4604,1.4616,1.4612,1.4622,1.4626,1.4618,1.463,1.4633,1.4638,1.4641,1.4635,1.4651,1.4652,1.4668,1.4674,1.4677,1.468,1.4673,1.4699,1.4701,1.4704,1.4712,1.4715,1.4676,1.4676,1.4676,1.4676,0,1.463,1.4638,1.4646,1.4653,1.4657,1.4668,1.4666,1.4672,1.4669,1.4668,1.4681,1.4683,1.469,1.4694,1.4691,1.4709,1.4706,1.47,1.4689,1.4708,1.4716,1.4719,1.4677,1.4677,1.4677,1.4677,0,0,1.4657,1.4662,1.4665,1.4668,1.4673,1.4679,1.469,1.4697,1.4702,1.4706,1.4715,1.4726,1.4721,1.4724,1.4722,1.473,1.4749,1.4722,1.4722,1.4728,1.4771,1.4775,1.4779,1.4746,1.4746,1.4747,1.477,0,1.4678,1.4697,1.4694,1.4712,1.472,1.4714,1.4723,1.4727,1.4727,1.4734,1.4735,1.4743,1.4734,1.4737,1.4744,1.4745,1.4758,1.4743,1.4754,1.4755,1.4753,1.4783,1.4788,1.481,1.4773,1.4774,1.4774,0,1.4705,1.4711,1.473,1.4734,1.4737,1.4745,1.4752,1.4759,1.4764,1.4763,1.4768,1.4764,1.4775,1.4765,1.478,1.477,1.4775,1.4776,1.4777,1.4778,1.4766,1.4785,1.4817,1.4821,1.4779,1.4779,1.4778,0,1.4724,1.4737,1.475,1.4753,1.4757,1.4763,1.4766,1.477,1.4775,1.4781,1.4784,1.4791,1.4795,1.4801,1.48,1.4792,1.4816,1.4805,1.4816,1.4816,1.4821,1.4821,1.4855,1.4824,1.4824,1.4824,1.4824,0,1.4748,1.476,1.4759,1.4767,1.478,1.4777,1.479,1.4792,1.4796,1.4804,1.4799,1.4807,1.4805,1.4813,1.4812,1.4825,1.4827,1.4827,1.4827,1.4828,1.4828,1.483,1.4829,1.4825,1.4825,1.4825,1.4824,0,1.4771,1.4771,1.4785,1.4788,1.479,1.4799,1.4803,1.481,1.4811,1.4822,1.4824,1.4825,1.4834,1.4833,1.4844,1.4843,1.486,1.4857,1.4858,1.4858,1.4869,1.4868,1.4906,1.4911,1.4877,1.4877,1.4878,0,1.4786,1.4795,1.48,1.4806,1.4809,1.4817,1.4822,1.4821,1.4826,1.4833,1.484,1.4849,1.4856,1.4871,1.4873,1.4881,1.4879,1.4892,1.488,1.4881,1.4879,1.4879,1.488,1.4894,1.4894,1.4895,1.4895,0,1.4814,1.4813,1.4821,1.4829,1.4835,1.4841,1.4847,1.4852,1.4851,1.4857,1.4867,1.4873,1.4884,1.4893,1.4901,1.4903,1.4899,1.4899,1.4902,1.4903,1.4903,1.4903,1.4865,1.4898,1.4897,1.4897,1.4897,1.4897,1.4833,1.4842,1.4847,1.4855,1.486,1.4865,1.4873,1.4875,1.4883,1.4892,1.489,1.4901,1.4907,1.4917,1.4921,1.4929,1.4925,1.4929,1.493,1.4932,1.4933,1.4902,1.4931,1.4931,1.4931,1.4931,1.4931,0,1.4861,1.4864,1.4872,1.4881,1.4888,1.4884,1.489,1.4896,1.4906,1.4911,1.4919,1.493,1.494,1.4942,1.4951,1.4958,1.4956,1.496,1.496,1.496,1.4936,1.4933,1.4961,1.4961,1.4961,1.4961,1.4961,1.4961,1.4876,1.4889,1.489,1.4906,1.4909,1.492,1.4924,1.4929,1.4934,1.4947,1.4955,1.4956,1.4961,1.497,1.4979,1.4979,1.4983,1.4988,1.4988,1.4965,1.4962,1.4959,1.4956,1.4989,1.4989,1.5011,1.5011,1.5011]},{"header":{"parameterUnit":"m.s-1","parameterCategory":1,"la1":30.2991,"la2":30.254,"lo1":-89.0895,"lo2":-89.0444,"dy":0.0017,"dx":0.0017,"nx":28,"ny":28,"refTime":"2024-11-22T03:00:00:Z","depth":0,"parameterNumber":3,"parameterNumberName":"V-component_of_WINDS"},"data":[0,0,0,0,0,0,0,0,0,0,0,0,0,0,0,0,0,0,0,0,0,0,0,0,0,0,0,0,0,0,0,0,0,0,0,0,0,0,0,0,0,0,0,0,0,0,0,0,0,0,0,0,0,0,0,0,0,0,-3.8927,-3.8928,0,-3.9027,-3.9028,-3.9029,-3.9042,-3.9041,-3.904,-3.904,-3.9138,-3.9141,-3.9144,0,0,0,0,0,0,0,0,0,0,0,0,0,-3.8745,-3.8748,-3.8927,-3.8928,-3.8929,-3.9026,-3.9028,-3.9029,-3.9042,-3.9041,-3.904,-3.9039,-3.9136,-3.9141,-3.9145,0,0,0,0,0,0,0,0,0,0,0,0,0,-3.8832,-3.8749,-3.8926,-3.8948,-3.895,-3.9026,-3.9028,-3.9029,-3.9043,-3.9041,-3.904,-3.9039,-3.9135,-3.914,-3.9145,-3.9205,0,0,-3.9161,-3.9164,0,0,0,0,0,0,0,0,-3.8827,-3.8839,-3.8943,-3.8946,-3.895,-3.9021,-3.9,-3.9088,-3.9043,-3.9008,-3.904,-3.9038,-3.91,-3.9108,-3.9129,-3.921,-3.9214,-3.9162,-3.9165,-3.9167,-3.9169,0,0,0,0,0,0,0,-3.8821,-3.8835,-3.8966,-3.8945,-3.8949,-3.8951,-3.8962,-3.9017,-3.906,-3.9011,-3.9012,-3.9024,-3.9101,-3.9124,-3.9132,-3.9216,-3.9162,-3.9166,-3.9169,-3.9171,-3.9354,-3.9356,0,0,0,0,0,0,-3.8812,-3.883,-3.8963,-3.8969,-3.8884,-3.8956,-3.8968,-3.8999,-3.9059,-3.9067,-3.9025,-3.9024,-3.9116,-3.9126,-3.9135,-3.9212,-3.9167,-3.9172,-3.9175,-3.9352,-3.9354,-3.9356,0,0,0,0,0,0,-3.8808,-3.8824,-3.8959,-3.89,-3.8917,-3.896,-3.8995,-3.9002,-3.9025,-3.907,-3.9078,-3.9041,-3.9115,-3.9128,-3.9189,-3.9215,-3.9174,-3.9179,-3.935,-3.9353,-3.9355,-3.9364,0,0,0,0,0,0,-3.8803,-3.8822,-3.8846,-3.89,-3.892,-3.9011,-3.8997,-3.9005,-3.9035,-3.9035,-3.9087,-3.9095,-3.9115,-3.9181,-3.9194,-3.9222,-3.9183,-3.9348,-3.9351,-3.9354,-3.9362,-3.9367,-3.9371,0,0,0,0,0,-3.8796,-3.8842,-3.8847,-3.8863,-3.8951,-3.9013,-3.9024,-3.9048,-3.9037,-3.9061,-3.909,-3.9093,-3.921,-3.9187,-3.9202,-3.9232,-3.9346,-3.935,-3.9354,-3.936,-3.9366,-3.9371,0,0,0,0,0,0,-3.8788,-3.885,-3.8855,-3.8921,-3.8962,-3.9015,-3.9046,-3.9054,-3.9097,-3.9095,-3.9122,-3.9134,-3.9194,-3.9219,-3.9192,-3.9294,-3.9277,-3.9284,-3.9276,-3.9282,-3.9287,-3.928,-3.9188,0,0,0,0,0,-3.8794,-3.884,-3.8891,-3.8944,-3.8965,-3.9002,-3.903,-3.9045,-3.9088,-3.9105,-3.9138,-3.9179,-3.9225,-3.9255,-3.93,-3.9365,-3.9378,-3.9393,-3.9398,-3.9401,-3.9407,-3.9446,-3.9454,-3.9369,-3.9369,-3.9369,0,0,-3.8806,-3.8846,-3.8873,-3.8944,-3.8977,-3.9025,-3.9016,-3.9066,-3.9101,-3.9112,-3.9173,-3.9199,-3.9246,-3.931,-3.934,-3.9333,-3.9434,-3.9406,-3.9409,-3.9413,-3.9451,-3.9459,-3.9466,-3.9371,-3.9371,-3.9371,0,0,-3.8853,-3.8888,-3.8937,-3.8972,-3.9023,-3.9048,-3.906,-3.9113,-3.9132,-3.9194,-3.9204,-3.9245,-3.9324,-3.9358,-3.9385,-3.9449,-3.9453,-3.9462,-3.9487,-3.9524,-3.9531,-3.9537,-3.9562,-3.957,-3.9468,-3.9468,-3.9468,0,-3.8862,-3.8934,-3.8961,-3.9011,-3.9043,-3.9057,-3.9108,-3.9139,-3.9202,-3.9223,-3.9215,-3.9316,-3.9348,-3.9422,-3.9438,-3.9459,-3.9474,-3.9457,-3.9528,-3.9535,-3.9541,-3.9564,-3.9573,-3.9469,-3.9469,-3.9469,-3.9469,0,-3.8943,-3.8994,-3.9027,-3.9091,-3.9126,-3.9175,-3.921,-3.9242,-3.9255,-3.928,-3.9344,-3.9384,-3.9439,-3.9457,-3.9468,-3.9533,-3.9527,-3.9523,-3.9506,-3.9549,-3.9572,-3.9581,-3.947,-3.947,-3.947,-3.9469,0,0,-3.8986,-3.9067,-3.9078,-3.9109,-3.9168,-3.9207,-3.9258,-3.9314,-3.9342,-3.9385,-3.9429,-3.9497,-3.9494,-3.9525,-3.9541,-3.9574,-3.9625,-3.9566,-3.9568,-3.9577,-3.97,-3.9704,-3.9714,-3.9628,-3.963,-3.9631,-3.9697,0,-3.9042,-3.9135,-3.9162,-3.9241,-3.9288,-3.9304,-3.9349,-3.939,-3.9416,-3.946,-3.9488,-3.9536,-3.9528,-3.9548,-3.9581,-3.9611,-3.965,-3.9607,-3.967,-3.9672,-3.9659,-3.9726,-3.973,-3.979,-3.9706,-3.9707,-3.9708,0,-3.9119,-3.9167,-3.9251,-3.9307,-3.9328,-3.9368,-3.9423,-3.9464,-3.9512,-3.9528,-3.9565,-3.9579,-3.9633,-3.9613,-3.9689,-3.9659,-3.9686,-3.9706,-3.9708,-3.9716,-3.9693,-3.9737,-3.9809,-3.9819,-3.9722,-3.9721,-3.972,0,-3.9144,-3.923,-3.9292,-3.9317,-3.9383,-3.9412,-3.944,-3.9487,-3.9519,-3.9566,-3.9588,-3.964,-3.9668,-3.9708,-3.9736,-3.9719,-3.981,-3.9792,-3.9826,-3.9825,-3.9844,-3.9843,-3.9924,-3.986,-3.986,-3.9859,-3.9859,0,-3.9204,-3.9255,-3.9305,-3.9343,-3.9402,-3.9432,-3.9488,-3.9518,-3.9559,-3.9604,-3.9619,-3.966,-3.9693,-3.9739,-3.9761,-3.9821,-3.9833,-3.9849,-3.9854,-3.9848,-3.9846,-3.9867,-3.9864,-3.9862,-3.9861,-3.9861,-3.9861,0,-3.9243,-3.9278,-3.9347,-3.9406,-3.9422,-3.9462,-3.9512,-3.955,-3.9577,-3.9633,-3.9648,-3.9691,-3.9745,-3.9777,-3.9845,-3.986,-3.9928,-3.993,-3.9912,-3.9915,-3.9948,-3.9945,-4.0046,-4.0061,-3.9985,-3.9986,-3.9986,0,-3.9279,-3.9319,-3.9383,-3.9415,-3.9445,-3.9496,-3.953,-3.9562,-3.9596,-3.9656,-3.9687,-3.9743,-3.979,-3.9876,-3.9913,-3.9966,-3.997,-4.0002,-3.9978,-3.9972,-3.9973,-3.9971,-3.9976,-4.0006,-4.0007,-4.0008,-4.0008,0,-3.934,-3.9357,-3.9406,-3.9463,-3.9504,-3.955,-3.9595,-3.962,-3.9659,-3.9697,-3.9755,-3.9791,-3.9863,-3.9919,-3.9975,-4.0004,-4.0013,-4.0016,-4.0027,-4.0021,-4.001,-4.0019,-3.9925,-4.0013,-4.0013,-4.0012,-4.0012,-4.0012,-3.938,-3.9418,-3.947,-3.9526,-3.9564,-3.9606,-3.9646,-3.968,-3.9729,-3.9791,-3.9806,-3.9867,-3.9915,-3.9993,-4.0023,-4.0071,-4.0065,-4.0081,-4.0085,-4.0089,-4.0091,-4.0002,-4.0081,-4.0081,-4.0081,-4.0081,-4.0081,0,-3.9444,-3.9479,-3.953,-3.9595,-3.9639,-3.9645,-3.9696,-3.9732,-3.9786,-3.9832,-3.9879,-3.9946,-4.0001,-4.0043,-4.0099,-4.013,-4.0136,-4.0144,-4.0142,-4.0149,-4.0091,-4.0077,-4.0138,-4.0138,-4.0138,-4.0138,-4.0138,-4.0138,-3.9483,-3.9548,-3.9571,-3.9656,-3.969,-3.9751,-3.978,-3.982,-3.9857,-3.9932,-3.9979,-4.0007,-4.0051,-4.0111,-4.0163,-4.0174,-4.0194,-4.0202,-4.0214,-4.0159,-4.0153,-4.0147,-4.0134,-4.0206,-4.0206,-4.0268,-4.0269,-4.0269]}]]